This demonstration page uses our WeatherBlox Daily Observations layout. Learn more.

Left ArrowRight Arrow

34.02893, -84.19858

Hourly Observations for June 19, 2022

Temp ( °F °C ) Dew Point ( °F °C ) Humidity (%) Winds ( mph kmh ) Pressure ( in mb ) Visibility ( mi km ) Precip ( " mm )
12:53 am 00:53 Clear 70 21.1 53 11.7 55 55 N 3 6 29.97 1015 9 14 0.00 0.00
1:53 am 01:53 Clear 68 20 54 12.2 61 61 N 3 6 29.98 1015 10 16 0.00 0.00
2:53 am 02:53 Clear 70 21.1 54 12.2 57 57 Calm 29.98 1015 10 16 0.00 0.00
3:53 am 03:53 Clear 69 20.6 53 11.7 57 57 Calm 30.00 1016 10 16 0.00 0.00
4:53 am 04:53 Clear 69 20.6 52 11.1 55 55 Calm 30.01 1016 10 16 0.00 0.00
5:53 am 05:53 Clear 68 20 52 11.1 57 57 Calm 30.02 1017 10 16 0.00 0.00
6:53 am 06:53 Sunny 66 18.9 52 11.1 61 61 Calm 30.05 1018 10 16 0.00 0.00
7:53 am 07:53 Sunny 69 20.6 51 10.6 53 53 undefined N/A 30.08 1019 10 16 0.00 0.00
8:53 am 08:53 Sunny 72 22.2 49 9.4 44 44 VRB 5 7 30.09 1019 10 16 0.00 0.00
9:53 am 09:53 Sunny 74 23.3 46 7.8 37 37 VRB 7 11 30.11 1020 10 16 0.00 0.00
10:53 am 10:53 Sunny 77 25 47 8.3 35 35 undefined N/A 30.12 1020 10 16 0.00 0.00
11:53 am 11:53 Sunny 80 26.7 48 8.9 33 33 undefined N/A 30.12 1020 10 16 0.00 0.00
12:53 pm 12:53 Sunny 82 27.8 48 8.9 31 31 VRB 7 11 30.12 1020 10 16 0.00 0.00
1:53 pm 13:53 Sunny 84 28.9 47 8.3 27 27 undefined N/A 30.11 1020 10 16 0.00 0.00
2:53 pm 14:53 Sunny 85 29.4 45 7.2 25 25 NE 8 13 30.09 1019 10 16 0.00 0.00
3:53 pm 15:53 Sunny 88 31.1 45 7.2 22 22 VRB 7 11 30.07 1018 10 16 0.00 0.00
4:53 pm 16:53 Sunny 86 30 46 7.8 25 25 VRB 3 6 30.06 1018 10 16 0.00 0.00
5:53 pm 17:53 Sunny 87 30.6 42 5.6 21 21 N 10 17 30.06 1018 10 16 0.00 0.00
6:53 pm 18:53 Sunny 86 30 43 6.1 22 22 N 10 17 30.05 1018 10 16 0.00 0.00
7:53 pm 19:53 Sunny 84 28.9 45 7.2 25 25 Calm 30.06 1018 10 16 0.00 0.00
8:53 pm 20:53 Clear 75 23.9 48 8.9 39 39 Calm 30.07 1018 10 16 0.00 0.00
9:53 pm 21:53 Clear 70 21.1 50 10 49 49 Calm 30.09 1019 10 16 0.00 0.00
10:53 pm 22:53 Clear 68 20 50 10 53 53 Calm 30.11 1020 10 16 0.00 0.00
11:53 pm 23:53 Clear 64 17.8 52 11.1 65 65 NNE 3 6 30.12 1020 10 16 0.00 0.00

Powered by AerisWeather